Change the Weather History Date:

Wednesday, February 27, 2013

  Actual Average Record
Temperature  
Mean Temperature 42 °F -  
Max Temperature 48 °F - - ()
Min Temperature 37 °F - - ()
Degree Days  
Heating Degree Days 22    
Moisture  
Dew Point 38 °F    
Average Humidity 83    
Maximum Humidity 91    
Minimum Humidity 67    
Precipitation  
Precipitation 0.08 in - - ()
Sea Level Pressure  
Sea Level Pressure 30.29 in    
Wind  
Wind Speed 3 mph ()    
Max Wind Speed 9 mph    
Max Gust Speed -    
T = Trace of Precipitation, MM = Missing Value Source: Averaged Metar Reports

Daily Weather History Graph

Daily Weather History Graph

Search for Another Location

Airport or City:

Trip Planner

Search our weather history database for the weather conditions in past years. The results will help you decide how hot, cold, wet, or windy it might be!

Date:

Astronomy

Feb. 27, 2013 Rise Set
Actual Time 6:56 AM PST 5:51 PM PST
Civil Twilight 6:24 AM PST 6:23 PM PST
Nautical Twilight 5:48 AM PST 7:00 PM PST
Astronomical Twilight 5:11 AM PST 7:37 PM PST
Moon 8:37 PM PST (2/27) 7:20 AM PST (2/27)
Length of Visible Light 11h 59m
Length of Day
10h 55m
Waning Gibbous, 96% of the Moon is Illuminated
Feb 27
Waning Gibbous
Mar 4
Last Quarter
Mar 11
New
Mar 19
First Quarter
Mar 27
Full

Hourly Weather History & Observations

Time (PST) Temp. Windchill Dew Point Humidity Pressure Visibility Wind Dir Wind Speed Gust Speed Precip Events Conditions
12:00 AM 43.0 °F 37.7 °F 37.8 °F 82% 30.20 in - South 9.2 mph - 0.06 in   Unknown
1:00 AM 42.1 °F 38.4 °F 37.9 °F 85% 30.21 in - SSE 5.8 mph - N/A   Unknown
2:00 AM 39.9 °F - 36.5 °F 88% 30.21 in - East 2.3 mph - N/A   Unknown
3:00 AM 40.1 °F 38.0 °F 37.0 °F 89% 30.23 in - SSE 3.5 mph - N/A   Unknown
4:00 AM 42 °F - 38 °F 81% 30.25 in - SSE 4.6 mph - -  
4:00 AM 41.5 °F 38.6 °F 38.1 °F 88% 30.25 in - SSE 4.6 mph - N/A   Unknown
5:00 AM 39.7 °F - 36.9 °F 89% 30.27 in - ESE 2.3 mph - N/A   Unknown
6:00 AM 38.1 °F - 35.6 °F 91% 30.29 in - North 1.2 mph - N/A   Unknown
7:00 AM 39.0 °F - 36.7 °F 91% 30.31 in - NE 2.3 mph - N/A   Unknown
8:00 AM 40.1 °F 38.0 °F 37.8 °F 91% 30.31 in - East 3.5 mph - N/A   Unknown
9:00 AM 42.1 °F - 39.2 °F 90% 30.31 in - East 2.3 mph - N/A   Unknown
10:00 AM 45 °F - 40 °F 78% 30.32 in - East 1.2 mph - -  
10:00 AM 44.8 °F - 40.5 °F 85% 30.32 in - East 1.2 mph - N/A   Unknown
11:00 AM 45.3 °F - 38.1 °F 76% 30.32 in - SW 1.2 mph - N/A   Unknown
12:00 PM 47.7 °F - 38.7 °F 71% 30.34 in - SW 2.3 mph - N/A   Unknown
2:00 PM 47.1 °F - 37.9 °F 70% 30.31 in - West 2.3 mph - N/A   Unknown
3:00 PM 45.5 °F - 37.9 °F 75% 30.32 in - WNW 1.2 mph - N/A   Unknown
4:00 PM 46 °F - 38 °F 67% 30.30 in - NE 1.2 mph - -  
4:00 PM 45.9 °F - 38.5 °F 75% 30.30 in - NE 1.2 mph - N/A   Unknown
5:00 PM 45.1 °F 43.7 °F 39.0 °F 79% 30.32 in - North 3.5 mph - N/A   Unknown
6:00 PM 43.0 °F 41.3 °F 38.5 °F 84% 30.31 in - North 3.5 mph - N/A   Unknown
7:00 PM 42.3 °F - 38.5 °F 86% 30.32 in - NNE 2.3 mph - N/A   Unknown
8:00 PM 40.8 °F 38.8 °F 37.2 °F 87% 30.32 in - North 3.5 mph - N/A   Unknown
9:00 PM 40.1 °F 38.0 °F 36.7 °F 88% 30.31 in - NNE 3.5 mph - N/A   Unknown
10:00 PM 40 °F - 37 °F 83% 30.32 in - North 3.5 mph - -  
11:00 PM 38.7 °F - 35.8 °F 89% 30.31 in - NE 2.3 mph - N/A   Unknown